When you browse on this site, cookies collect data to enhance your experience and personalize the content and advertising you see.
Visit our Privacy Policy to learn more. By continuing to use the site, you agree to this use of cookies and data.
  • In Hungary
  • List of Countries
  • For 7 days
  • Water Temperature
  • Weather Map
  • News
  • Weather Widgets
  • user-avatar
    Login

    Hourly Weather Kurilovka

    Today, 24 October, Thursday

    Time Temperature Precipitation Wind Pressure Humidity
    00:00 +10°C° 0 mm 2 mps 747 mmHg 82%
    01:00 +10°C° 0 mm 2 mps 747 mmHg 82%
    02:00 +9°C° 0 mm 2 mps 748 mmHg 82%
    03:00 +9°C° 0 mm 2 mps 748 mmHg 81%
    04:00 +9°C° 0 mm 2 mps 748 mmHg 84%
    05:00 +8°C° 0 mm 2 mps 748 mmHg 86%
    06:00 +7°C° 0 mm 2 mps 748 mmHg 89%
    07:00 +9°C° 0 mm 1 mps 748 mmHg 87%
    08:00 +10°C° 0 mm 1 mps 749 mmHg 85%
    09:00 +10°C° 0 mm 1 mps 749 mmHg 83%
    10:00 +11°C° 0 mm 1 mps 749 mmHg 78%
    11:00 +12°C° 0 mm 1 mps 749 mmHg 74%
    12:00 +13°C° 0 mm 1 mps 749 mmHg 69%
    13:00 +13°C° 0 mm 1 mps 749 mmHg 68%
    14:00 +13°C° 0 mm 0 mps 749 mmHg 66%
    15:00 +13°C° 0 mm 0 mps 749 mmHg 64%
    16:00 +12°C° 0 mm 0 mps 749 mmHg 69%
    17:00 +11°C° 0 mm 0 mps 749 mmHg 73%
    18:00 +10°C° 0 mm 0 mps 749 mmHg 77%
    19:00 +10°C° 0 mm 0 mps 749 mmHg 78%
    20:00 +10°C° 0 mm 0 mps 749 mmHg 79%
    21:00 +11°C° 0 mm 1 mps 750 mmHg 81%
    22:00 +11°C° 0 mm 1 mps 750 mmHg 81%
    23:00 +11°C° 0 mm 1 mps 750 mmHg 82%

    Tomorrow, 25 October, Friday

    Time Temperature Precipitation Wind Pressure Humidity
    00:00 +10°C° 0 mm 1 mps 749 mmHg 83%
    01:00 +10°C° 0 mm 1 mps 749 mmHg 85%
    02:00 +9°C° 0 mm 1 mps 749 mmHg 87%
    03:00 +9°C° 0 mm 1 mps 749 mmHg 89%
    04:00 +8°C° 0 mm 1 mps 749 mmHg 89%
    05:00 +8°C° 0 mm 1 mps 750 mmHg 90%
    06:00 +8°C° 0 mm 1 mps 750 mmHg 90%
    07:00 +8°C° 0 mm 1 mps 750 mmHg 88%
    08:00 +9°C° 0 mm 1 mps 750 mmHg 86%
    09:00 +10°C° 0 mm 1 mps 750 mmHg 84%
    10:00 +11°C° 0 mm 1 mps 750 mmHg 79%
    11:00 +12°C° 0 mm 1 mps 750 mmHg 74%
    12:00 +13°C° 0 mm 1 mps 751 mmHg 69%
    13:00 +13°C° 0 mm 1 mps 750 mmHg 68%
    14:00 +13°C° 0 mm 1 mps 750 mmHg 67%
    15:00 +13°C° 0 mm 1 mps 750 mmHg 67%
    16:00 +12°C° 0 mm 1 mps 750 mmHg 72%
    17:00 +11°C° 0 mm 1 mps 750 mmHg 77%
    18:00 +9°C° 0 mm 0 mps 750 mmHg 82%
    19:00 +10°C° 0 mm 1 mps 750 mmHg 84%
    20:00 +9°C° 0 mm 1 mps 750 mmHg 86%
    21:00 +9°C° 0 mm 1 mps 750 mmHg 88%
    22:00 +9°C° 0 mm 1 mps 750 mmHg 89%
    23:00 +8°C° 0 mm 1 mps 750 mmHg 89%

    Day after tomorrow, 26 October, Saturday

    Time Temperature Precipitation Wind Pressure Humidity
    00:00 +8°C° 0 mm 1 mps 750 mmHg 90%
    01:00 +8°C° 0 mm 1 mps 750 mmHg 91%
    02:00 +7°C° 0 mm 2 mps 750 mmHg 91%
    03:00 +6°C° 0 mm 2 mps 749 mmHg 92%
    04:00 +6°C° 0 mm 2 mps 749 mmHg 92%
    05:00 +6°C° 0 mm 2 mps 749 mmHg 92%
    06:00 +5°C° 0 mm 3 mps 749 mmHg 92%
    07:00 +7°C° 0 mm 3 mps 749 mmHg 89%
    08:00 +8°C° 0 mm 3 mps 748 mmHg 86%
    09:00 +8°C° 0 mm 4 mps 748 mmHg 84%
    10:00 +10°C° 0 mm 4 mps 748 mmHg 80%
    11:00 +10°C° 0 mm 5 mps 748 mmHg 77%
    12:00 +13°C° 0 mm 6 mps 747 mmHg 73%
    13:00 +13°C° 0 mm 6 mps 747 mmHg 73%
    14:00 +13°C° 0 mm 6 mps 747 mmHg 72%
    15:00 +13°C° 0 mm 6 mps 746 mmHg 71%
    16:00 +13°C° 0 mm 6 mps 746 mmHg 74%
    17:00 +12°C° 0 mm 5 mps 746 mmHg 78%
    18:00 +10°C° 0 mm 5 mps 745 mmHg 81%
    19:00 +10°C° 0 mm 5 mps 745 mmHg 82%
    20:00 +9°C° 0 mm 5 mps 745 mmHg 83%
    21:00 +9°C° 0 mm 5 mps 745 mmHg 85%
    22:00 +9°C° 0 mm 5 mps 744 mmHg 87%
    23:00 +8°C° 0 mm 5 mps 744 mmHg 90%

    , 27 October, Sunday

    Time Temperature Precipitation Wind Pressure Humidity
    00:00 +8°C° 0 mm 4 mps 744 mmHg 93%
    01:00 +8°C° 0 mm 5 mps 743 mmHg 93%
    02:00 +8°C° 0 mm 5 mps 743 mmHg 94%
    03:00 +8°C° 0 mm 5 mps 742 mmHg 94%
    04:00 +8°C° 0 mm 6 mps 742 mmHg 89%
    05:00 +8°C° 0 mm 6 mps 741 mmHg 85%
    06:00 +8°C° 0 mm 6 mps 741 mmHg 80%
    07:00 +9°C° 0 mm 6 mps 741 mmHg 79%
    08:00 +9°C° 0 mm 6 mps 741 mmHg 78%
    09:00 +9°C° 0 mm 6 mps 741 mmHg 76%
    10:00 +10°C° 0 mm 6 mps 740 mmHg 78%
    11:00 +10°C° 0 mm 6 mps 740 mmHg 79%
    12:00 +10°C° 0 mm 6 mps 740 mmHg 80%
    13:00 +11°C° 0 mm 6 mps 740 mmHg 80%
    14:00 +11°C° 0 mm 6 mps 740 mmHg 80%
    15:00 +11°C° 0 mm 6 mps 740 mmHg 80%
    16:00 +12°C° 0 mm 5 mps 740 mmHg 81%
    17:00 +10°C° 0 mm 5 mps 740 mmHg 81%
    18:00 +11°C° 0 mm 4 mps 740 mmHg 82%
    19:00 +11°C° 0 mm 4 mps 740 mmHg 82%
    20:00 +11°C° 0 mm 4 mps 740 mmHg 82%
    21:00 +11°C° 0 mm 4 mps 740 mmHg 82%
    22:00 +11°C° 0 mm 4 mps 739 mmHg 85%
    23:00 +9°C° 0 mm 5 mps 739 mmHg 88%

    27 October, Sunday

    Time Temperature Precipitation Wind Pressure Humidity
    00:00 +8°C° 0 mm 4 mps 744 mmHg 93%
    01:00 +8°C° 0 mm 5 mps 743 mmHg 93%
    02:00 +8°C° 0 mm 5 mps 743 mmHg 94%
    03:00 +8°C° 0 mm 5 mps 742 mmHg 94%
    04:00 +8°C° 0 mm 6 mps 742 mmHg 89%
    05:00 +8°C° 0 mm 6 mps 741 mmHg 85%
    06:00 +8°C° 0 mm 6 mps 741 mmHg 80%
    07:00 +9°C° 0 mm 6 mps 741 mmHg 79%
    08:00 +9°C° 0 mm 6 mps 741 mmHg 78%
    09:00 +9°C° 0 mm 6 mps 741 mmHg 76%
    10:00 +10°C° 0 mm 6 mps 740 mmHg 78%
    11:00 +10°C° 0 mm 6 mps 740 mmHg 79%
    12:00 +10°C° 0 mm 6 mps 740 mmHg 80%
    13:00 +11°C° 0 mm 6 mps 740 mmHg 80%
    14:00 +11°C° 0 mm 6 mps 740 mmHg 80%
    15:00 +11°C° 0 mm 6 mps 740 mmHg 80%
    16:00 +12°C° 0 mm 5 mps 740 mmHg 81%
    17:00 +10°C° 0 mm 5 mps 740 mmHg 81%
    18:00 +11°C° 0 mm 4 mps 740 mmHg 82%
    19:00 +11°C° 0 mm 4 mps 740 mmHg 82%
    20:00 +11°C° 0 mm 4 mps 740 mmHg 82%
    21:00 +11°C° 0 mm 4 mps 740 mmHg 82%
    22:00 +11°C° 0 mm 4 mps 739 mmHg 85%
    23:00 +9°C° 0 mm 5 mps 739 mmHg 88%

    28 October, Monday

    Time Temperature Precipitation Wind Pressure Humidity
    00:00 +9°C° 0 mm 5 mps 739 mmHg 91%
    01:00 +9°C° 0 mm 5 mps 738 mmHg 91%
    02:00 +8°C° 0 mm 5 mps 738 mmHg 92%
    03:00 +8°C° 0 mm 6 mps 738 mmHg 93%
    04:00 +8°C° 0 mm 6 mps 737 mmHg 93%
    05:00 +8°C° 0 mm 6 mps 737 mmHg 93%
    06:00 +8°C° 0 mm 6 mps 737 mmHg 93%
    07:00 +8°C° 0 mm 6 mps 736 mmHg 92%
    08:00 +9°C° 0 mm 6 mps 736 mmHg 90%
    09:00 +9°C° 0 mm 7 mps 736 mmHg 88%
    10:00 +10°C° 0 mm 7 mps 736 mmHg 84%
    11:00 +11°C° 0 mm 7 mps 736 mmHg 80%
    12:00 +12°C° 0 mm 7 mps 736 mmHg 76%
    13:00 +12°C° 0 mm 7 mps 736 mmHg 76%
    14:00 +12°C° 0 mm 7 mps 736 mmHg 77%
    15:00 +12°C° 0 mm 7 mps 736 mmHg 77%
    16:00 +13°C° 0 mm 6 mps 736 mmHg 77%
    17:00 +11°C° 0 mm 6 mps 736 mmHg 76%
    18:00 +11°C° 0 mm 6 mps 736 mmHg 76%
    19:00 +10°C° 0 mm 5 mps 737 mmHg 72%
    20:00 +9°C° 0 mm 5 mps 737 mmHg 68%
    21:00 +8°C° 0 mm 5 mps 738 mmHg 63%
    22:00 +7°C° 0 mm 4 mps 738 mmHg 67%
    23:00 +6°C° 0 mm 4 mps 739 mmHg 70%

    29 October, Tuesday

    Time Temperature Precipitation Wind Pressure Humidity
    00:00 +6°C° 0 mm 4 mps 740 mmHg 73%
    01:00 +5°C° 0 mm 4 mps 740 mmHg 76%
    02:00 +4°C° 0 mm 4 mps 741 mmHg 78%
    03:00 +4°C° 0 mm 4 mps 742 mmHg 80%
    04:00 +3°C° 0 mm 3 mps 742 mmHg 81%
    05:00 +2°C° 0 mm 3 mps 743 mmHg 82%
    06:00 +2°C° 0 mm 3 mps 743 mmHg 82%
    07:00 +2°C° 0 mm 3 mps 744 mmHg 77%
    08:00 +1°C° 0 mm 3 mps 745 mmHg 72%
    09:00 +1°C° 0 mm 3 mps 746 mmHg 67%
    10:00 +2°C° 0 mm 3 mps 746 mmHg 63%
    11:00 +2°C° 0 mm 3 mps 747 mmHg 59%
    12:00 +3°C° 0 mm 3 mps 747 mmHg 55%
    13:00 +3°C° 0 mm 3 mps 747 mmHg 55%
    14:00 +3°C° 0 mm 3 mps 748 mmHg 55%
    15:00 +4°C° 0 mm 2 mps 748 mmHg 55%
    16:00 +3°C° 0 mm 2 mps 748 mmHg 59%
    17:00 +2°C° 0 mm 2 mps 749 mmHg 63%
    18:00 +1°C° 0 mm 2 mps 749 mmHg 66%
    19:00 +1°C° 0 mm 2 mps 749 mmHg 68%
    20:00 +1°C° 0 mm 2 mps 750 mmHg 70%
    21:00 -1°C° 0 mm 2 mps 750 mmHg 72%
    22:00 -1°C° 0 mm 2 mps 750 mmHg 72%
    23:00 -1°C° 0 mm 2 mps 750 mmHg 73%
    Show more